Location: Central Falls
(41.8900°N, 71.3929°W)
Time: 12:50:48
(UTC+00:00)

Tiros 1 despin weight - Pass Details

Date: 10 December 2023
Orbit: 581 x 625 km, 48.2° (Epoch: 20 February)

Event Time Altitude Azimuth Distance (km) Brightness Sun altitude
Rises 04:08:51 0° 284° (WNW) 2,797 - -70.0°
Reaches altitude 10° 04:12:02 10° 259° (W) 1,897 - -70.2°
Maximum altitude 04:14:21 14° 227° (SW) 1,639 - -70.4°
Drops below altitude 10° 04:16:40 10° 194° (SSW) 1,900 - -70.5°
Sets 04:19:52 0° 170° (S) 2,804 - -70.6°
